TimeCST,TemperatureF,Dew PointF,Humidity,Sea Level PressureIn,VisibilityMPH,Wind Direction,Wind SpeedMPH,Gust SpeedMPH,PrecipitationIn,Events,Conditions,WindDirDegrees,DateUTC
12:53 AM,43.0,37.0,80,29.95,10.0,North,6.9,-,N/A,,Overcast,350,2012-12-11 06:53:00
1:53 AM,42.1,36.0,79,29.96,10.0,NNW,4.6,-,N/A,,Overcast,330,2012-12-11 07:53:00
2:15 AM,41.0,35.6,81,29.96,10.0,NNW,5.8,-,N/A,,Scattered Clouds,340,2012-12-11 08:15:00
2:53 AM,39.9,34.0,79,29.98,10.0,NW,6.9,-,N/A,,Clear,310,2012-12-11 08:53:00
3:38 AM,39.2,32.0,75,29.98,10.0,Variable,4.6,-,N/A,,Mostly Cloudy,0,2012-12-11 09:38:00
3:53 AM,39.9,32.0,73,29.99,10.0,NW,6.9,-,N/A,,Overcast,320,2012-12-11 09:53:00
4:53 AM,39.0,32.0,76,30.01,10.0,NW,4.6,-,N/A,,Overcast,310,2012-12-11 10:53:00
5:53 AM,39.0,32.0,76,30.05,10.0,Variable,5.8,-,N/A,,Overcast,0,2012-12-11 11:53:00
6:53 AM,37.9,30.9,76,30.08,9.0,North,5.8,-,N/A,,Overcast,350,2012-12-11 12:53:00
7:53 AM,37.9,30.9,76,30.11,8.0,NNW,6.9,-,N/A,,Overcast,330,2012-12-11 13:53:00
8:51 AM,37.4,30.2,75,30.10,7.0,North,5.8,-,N/A,,Overcast,360,2012-12-11 14:51:00
8:53 AM,37.0,30.9,79,30.12,7.0,NNE,4.6,-,N/A,,Overcast,20,2012-12-11 14:53:00
9:42 AM,37.4,30.2,75,30.14,9.0,NW,6.9,-,N/A,,Overcast,320,2012-12-11 15:42:00
9:53 AM,37.0,30.0,76,30.16,9.0,Variable,6.9,-,N/A,,Overcast,0,2012-12-11 15:53:00
10:53 AM,37.9,30.9,76,30.13,10.0,NNE,9.2,-,N/A,,Overcast,20,2012-12-11 16:53:00
11:53 AM,37.9,30.9,76,30.13,9.0,North,8.1,-,N/A,,Overcast,10,2012-12-11 17:53:00
12:53 PM,39.9,30.0,68,30.12,9.0,NNW,4.6,-,N/A,,Mostly Cloudy,330,2012-12-11 18:53:00
1:23 PM,39.2,30.2,70,30.09,9.0,North,8.1,-,N/A,,Scattered Clouds,360,2012-12-11 19:23:00
1:53 PM,39.9,30.0,68,30.13,9.0,NNW,5.8,-,N/A,,Scattered Clouds,340,2012-12-11 19:53:00
2:53 PM,39.9,30.0,68,30.13,9.0,NNW,4.6,-,N/A,,Clear,340,2012-12-11 20:53:00
3:53 PM,39.9,28.9,65,30.14,10.0,North,4.6,-,N/A,,Clear,350,2012-12-11 21:53:00
4:53 PM,39.0,28.9,67,30.15,10.0,NNE,4.6,-,N/A,,Clear,20,2012-12-11 22:53:00
5:53 PM,39.0,28.9,67,30.15,10.0,Variable,3.5,-,N/A,,Clear,0,2012-12-11 23:53:00
6:53 PM,39.0,28.9,67,30.16,10.0,Calm,Calm,-,N/A,,Clear,0,2012-12-12 00:53:00
7:53 PM,37.0,30.0,76,30.18,10.0,Calm,Calm,-,N/A,,Clear,0,2012-12-12 01:53:00
8:53 PM,37.9,30.0,73,30.18,10.0,Calm,Calm,-,N/A,,Clear,0,2012-12-12 02:53:00
9:53 PM,37.9,28.9,70,30.20,10.0,Calm,Calm,-,N/A,,Clear,0,2012-12-12 03:53:00
10:53 PM,37.9,28.9,70,30.22,10.0,NE,4.6,-,N/A,,Clear,40,2012-12-12 04:53:00
11:53 PM,37.9,28.9,70,30.21,10.0,NNE,4.6,-,N/A,,Clear,30,2012-12-12 05:53:00